Location: Stara Lesna
(49.1528°N, 20.2911°E)
Time: 05:42:38
(UTC+02:00)

H-2A R/B - Pass Details

Date: 21 September 2019
Orbit: 529 x 654 km, 98.3° (Epoch: 17 October)

Event Time Altitude Azimuth Distance (km) Brightness Sun altitude
Rises 05:26:29 0° 7° (N) 2,693 6.1 -10.0°
Reaches altitude 10° 05:28:42 10° 359° (N) 1,791 5.1 -9.7°
Maximum altitude 05:32:15 37° 292° (WNW) 847 2.9 -9.1°
Drops below altitude 10° 05:35:46 10° 225° (SW) 1,780 4.4 -8.5°
Enters shadow 05:36:54 - 220° (SW) 2,230 5.0 -8.3°
